Tracking 19192 objects as of 18-Jun-2018
HD Live streaming from Space Station
objects crossing your sky now

FENGYUN 1C DEB

Track FENGYUN 1C DEB now!
10-day predictions


NORAD ID: 30726
Int'l Code: 1999-025ASL
Perigee: 837.8 km
Apogee: 960.9 km
Inclination: 99.1 °
Period: 102.8 minutes
Semi major axis: 7270 km
RCS: 0.021 m2 (small)
Launch date: May 10, 1999
Source: People's Republic of China (PRC)
Launch site: Taiyaun Space Center, China (TSC)

Note: This is SATELLITE DEBRIS
aabbcc
Your satellite tracking list
Your tracking list is empty




NASA's NSSDC Master Catalog

Two Line Element Set (TLE):
1 30726U 99025ASL 18168.79470250 +.00000517 +00000-0 +36722-3 0  9997
2 30726 099.1144 112.3773 0084670 216.3546 209.6018 14.00464787576379
Source of the keplerian elements: AFSPC